| time (UTC) | temp C | wind direction | speed KPH | gust KPH | rain 1hr cm | rain 24hr cm | rain mn cm | humidity % | barometer mb |
| 20260508100004 | 5 | 251 | 0.0 | 1.6 | 0.00 | 0.15 | 0.00 | 91 | 1000.5 |
| 20260508095003 | 5 | 274 | 1.6 | 4.8 | 0.00 | 0.15 | 0.00 | 91 | 1000.5 |
| 20260508094004 | 5 | 280 | 1.6 | 4.8 | 0.00 | 0.15 | 0.00 | 90 | 1000.5 |
| 20260508093003 | 5 | 274 | 1.6 | 4.8 | 0.00 | 0.15 | 0.00 | 91 | 1000.5 |
| 20260508092003 | 5 | 271 | 0.0 | 3.2 | 0.00 | 0.15 | 0.00 | 91 | 1000.9 |
| 20260508091003 | 5 | 252 | 0.0 | 3.2 | 0.00 | 0.15 | 0.00 | 92 | 1000.2 |
| 20260508090004 | 5 | 247 | 0.0 | 1.6 | 0.00 | 0.15 | 0.00 | 92 | 1000.5 |
| 20260508085003 | 5 | 242 | 0.0 | 3.2 | 0.00 | 0.15 | 0.00 | 92 | 1000.2 |
| 20260508084004 | 5 | 235 | 0.0 | 1.6 | 0.00 | 0.15 | 0.00 | 91 | 1000.2 |
| 20260508083004 | 6 | 228 | 0.0 | 1.6 | 0.00 | 0.15 | 0.00 | 90 | 1000.2 |
| 20260508082004 | 6 | 221 | 0.0 | 1.6 | 0.00 | 0.15 | 0.00 | 91 | 1000.2 |
| 20260508081003 | 6 | 232 | 0.0 | 3.2 | 0.00 | 0.18 | 0.00 | 91 | 1000.5 |
| 20260508080003 | 6 | 269 | 0.0 | 1.6 | 0.00 | 0.18 | 0.00 | 91 | 1000.2 |
| 20260508075004 | 6 | 270 | 0.0 | 1.6 | 0.00 | 0.18 | 0.00 | 90 | 1000.2 |
| 20260508074003 | 6 | 266 | 0.0 | 3.2 | 0.00 | 0.18 | 0.00 | 89 | 1000.5 |
| 20260508073004 | 6 | 257 | 0.0 | 3.2 | 0.00 | 0.18 | 0.00 | 90 | 1000.5 |
| 20260508072004 | 6 | 266 | 0.0 | 1.6 | 0.00 | 0.18 | 0.00 | 89 | 1000.5 |
| 20260508071004 | 6 | 273 | 0.0 | 3.2 | 0.00 | 0.20 | 0.00 | 90 | 1000.5 |
| 20260508070004 | 6 | 274 | 1.6 | 4.8 | 0.00 | 0.20 | 0.00 | 90 | 1000.2 |
| 20260508065003 | 6 | 255 | 0.0 | 1.6 | 0.00 | 0.20 | 0.00 | 92 | 1000.2 |
| 20260508064003 | 5 | 0 | 0.0 | 0.0 | 0.00 | 0.20 | 0.00 | 92 | 1000.5 |
| 20260508063003 | 5 | 267 | 0.0 | 1.6 | 0.00 | 0.20 | 0.00 | 92 | 1000.5 |
| 20260508062003 | 5 | 267 | 0.0 | 1.6 | 0.00 | 0.23 | 0.00 | 92 | 1000.5 |
| 20260508061003 | 5 | 0 | 0.0 | 0.0 | 0.00 | 0.23 | 0.00 | 92 | 1000.5 |
| 20260508060004 | 6 | 0 | 0.0 | 0.0 | 0.00 | 0.23 | 0.00 | 90 | 1000.5 |
| 20260508055003 | 6 | 244 | 0.0 | 3.2 | 0.00 | 0.23 | 0.00 | 89 | 1000.9 |
| 20260508054003 | 6 | 233 | 0.0 | 3.2 | 0.00 | 0.23 | 0.00 | 88 | 1000.9 |
| 20260508053003 | 6 | 266 | 0.0 | 3.2 | 0.00 | 0.23 | 0.00 | 88 | 1000.9 |
| 20260508052004 | 6 | 278 | 1.6 | 3.2 | 0.00 | 0.23 | 0.00 | 87 | 1000.9 |
| 20260508051003 | 6 | 271 | 1.6 | 9.7 | 0.00 | 0.25 | 0.00 | 88 | 1000.9 |
| 20260508050004 | 6 | 268 | 1.6 | 4.8 | 0.00 | 0.25 | 0.00 | 89 | 1000.9 |
| 20260508045004 | 6 | 270 | 1.6 | 4.8 | 0.00 | 0.28 | 0.00 | 89 | 1000.9 |
| 20260508044003 | 6 | 249 | 1.6 | 4.8 | 0.00 | 0.28 | 0.00 | 89 | 1000.9 |
| 20260508043003 | 6 | 265 | 1.6 | 6.4 | 0.00 | 0.28 | 0.00 | 90 | 1000.9 |
| 20260508042003 | 5 | 263 | 0.0 | 1.6 | 0.00 | 0.28 | 0.00 | 92 | 1000.9 |
| 20260508041003 | 6 | 0 | 0.0 | 0.0 | 0.00 | 0.28 | 0.00 | 92 | 1000.9 |
| 20260508040004 | 6 | 272 | 0.0 | 1.6 | 0.00 | 0.28 | 0.00 | 92 | 1000.5 |
| 20260508035003 | 6 | 272 | 0.0 | 1.6 | 0.00 | 0.28 | 0.00 | 93 | 1000.5 |
| 20260508034004 | 6 | 276 | 1.6 | 3.2 | 0.00 | 0.28 | 0.00 | 94 | 1000.5 |
| 20260508033003 | 6 | 264 | 0.0 | 3.2 | 0.00 | 0.28 | 0.00 | 97 | 1000.9 |
| 20260508032004 | 6 | 142 | 0.0 | 1.6 | 0.00 | 0.28 | 0.00 | 96 | 1000.9 |
| 20260508031003 | 6 | 139 | 0.0 | 3.2 | 0.00 | 0.28 | 0.00 | 96 | 1000.9 |
| 20260508030004 | 6 | 0 | 0.0 | 0.0 | 0.00 | 0.28 | 0.00 | 95 | 1000.9 |
| 20260508025003 | 6 | 139 | 0.0 | 3.2 | 0.00 | 0.28 | 0.28 | 95 | 1000.5 |
| 20260508024004 | 6 | 288 | 1.6 | 4.8 | 0.00 | 0.28 | 0.28 | 96 | 1000.9 |
| 20260508023003 | 6 | 0 | 0.0 | 0.0 | 0.00 | 0.28 | 0.28 | 95 | 1000.2 |
| 20260508022003 | 7 | 200 | 0.0 | 1.6 | 0.00 | 0.28 | 0.28 | 95 | 1000.2 |
| 20260508021003 | 7 | 199 | 0.0 | 1.6 | 0.00 | 0.28 | 0.28 | 95 | 1000.2 |
| 20260508020004 | 7 | 195 | 0.0 | 4.8 | 0.00 | 0.28 | 0.28 | 95 | 1000.5 |
| 20260508015003 | 7 | 209 | 0.0 | 3.2 | 0.00 | 0.28 | 0.28 | 95 | 1000.5 |
| 20260508014003 | 7 | 225 | 0.0 | 1.6 | 0.00 | 0.28 | 0.28 | 95 | 1000.5 |
| 20260508013004 | 7 | 225 | 0.0 | 1.6 | 0.00 | 0.28 | 0.28 | 93 | 1000.5 |
| 20260508012003 | 7 | 0 | 0.0 | 0.0 | 0.00 | 0.28 | 0.28 | 92 | 1000.2 |
| 20260508011003 | 7 | 223 | 0.0 | 1.6 | 0.00 | 0.28 | 0.28 | 91 | 1000.5 |
| 20260508010004 | 7 | 206 | 0.0 | 3.2 | 0.00 | 0.28 | 0.28 | 91 | 1000.2 |
| 20260508005004 | 7 | 0 | 0.0 | 0.0 | 0.00 | 0.28 | 0.28 | 86 | 1000.5 |
| 20260508004003 | 7 | 0 | 0.0 | 0.0 | 0.00 | 0.28 | 0.28 | 84 | 1000.2 |
| 20260508003004 | 7 | 262 | 0.0 | 1.6 | 0.00 | 0.28 | 0.28 | 81 | 1000.2 |
| 20260508002003 | 8 | 0 | 0.0 | 0.0 | 0.00 | 0.28 | 0.28 | 80 | 1000.2 |
| 20260508001003 | 8 | 262 | 0.0 | 1.6 | 0.00 | 0.28 | 0.28 | 78 | 999.8 |
| 20260508000004 | 8 | 0 | 0.0 | 0.0 | 0.00 | 0.28 | 0.28 | 80 | 999.8 |
| 20260507235004 | 9 | 262 | 0.0 | 1.6 | 0.00 | 0.28 | 0.28 | 75 | 999.8 |
| 20260507234004 | 10 | 262 | 0.0 | 1.6 | 0.00 | 0.28 | 0.28 | 76 | 999.8 |
| 20260507233004 | 10 | 0 | 0.0 | 0.0 | 0.00 | 0.28 | 0.28 | 70 | 999.8 |
| 20260507232004 | 11 | 0 | 0.0 | 0.0 | 0.00 | 0.28 | 0.28 | 69 | 999.5 |
| 20260507231003 | 12 | 262 | 0.0 | 1.6 | 0.00 | 0.28 | 0.28 | 59 | 999.5 |
| 20260507230004 | 12 | 262 | 0.0 | 1.6 | 0.00 | 0.28 | 0.28 | 55 | 999.5 |
| 20260507225003 | 13 | 273 | 0.0 | 4.8 | 0.00 | 0.28 | 0.28 | 52 | 999.8 |
| 20260507224004 | 13 | 287 | 0.0 | 4.8 | 0.00 | 0.28 | 0.28 | 50 | 999.8 |
| 20260507223003 | 14 | 292 | 1.6 | 6.4 | 0.00 | 0.28 | 0.28 | 48 | 999.8 |
| 20260507222004 | 14 | 299 | 3.2 | 9.7 | 0.00 | 0.28 | 0.28 | 50 | 999.8 |
| 20260507221003 | 14 | 296 | 3.2 | 9.7 | 0.00 | 0.28 | 0.28 | 50 | 999.8 |
| 20260507220004 | 15 | 280 | 3.2 | 9.7 | 0.00 | 0.28 | 0.28 | 49 | 999.8 |
| 20260507215003 | 15 | 277 | 1.6 | 6.4 | 0.00 | 0.28 | 0.28 | 52 | 999.5 |
| 20260507214003 | 14 | 290 | 4.8 | 12.9 | 0.00 | 0.28 | 0.28 | 52 | 999.8 |
| 20260507213003 | 15 | 296 | 3.2 | 14.5 | 0.00 | 0.28 | 0.28 | 49 | 999.5 |
| 20260507212004 | 15 | 272 | 3.2 | 14.5 | 0.00 | 0.28 | 0.28 | 52 | 999.5 |
| 20260507211003 | 15 | 278 | 4.8 | 12.9 | 0.00 | 0.28 | 0.28 | 50 | 999.5 |
| 20260507210004 | 15 | 295 | 1.6 | 6.4 | 0.00 | 0.28 | 0.28 | 53 | 999.2 |
| 20260507205003 | 15 | 275 | 1.6 | 6.4 | 0.00 | 0.28 | 0.28 | 54 | 999.2 |
| 20260507204003 | 15 | 285 | 1.6 | 6.4 | 0.00 | 0.28 | 0.28 | 56 | 998.8 |
| 20260507203003 | 15 | 298 | 4.8 | 12.9 | 0.00 | 0.28 | 0.28 | 52 | 998.8 |
| 20260507202004 | 16 | 275 | 3.2 | 9.7 | 0.00 | 0.28 | 0.28 | 53 | 998.8 |
| 20260507201003 | 16 | 279 | 3.2 | 11.3 | 0.00 | 0.28 | 0.28 | 49 | 998.8 |
| 20260507200004 | 16 | 288 | 4.8 | 12.9 | 0.00 | 0.28 | 0.28 | 51 | 998.8 |
| 20260507195004 | 16 | 284 | 4.8 | 11.3 | 0.00 | 0.28 | 0.28 | 46 | 998.8 |
| 20260507194003 | 16 | 292 | 4.8 | 12.9 | 0.00 | 0.28 | 0.28 | 52 | 998.5 |
| 20260507193003 | 15 | 279 | 3.2 | 11.3 | 0.00 | 0.28 | 0.28 | 55 | 998.8 |
| 20260507192004 | 15 | 272 | 4.8 | 14.5 | 0.00 | 0.28 | 0.28 | 57 | 998.8 |
| 20260507191004 | 14 | 286 | 6.4 | 14.5 | 0.00 | 0.28 | 0.28 | 63 | 998.5 |
| 20260507190004 | 16 | 288 | 4.8 | 14.5 | 0.00 | 0.28 | 0.28 | 63 | 998.8 |
| 20260507185003 | 15 | 267 | 6.4 | 16.1 | 0.00 | 0.28 | 0.28 | 63 | 998.5 |
| 20260507184003 | 14 | 287 | 6.4 | 17.7 | 0.00 | 0.28 | 0.28 | 66 | 998.5 |
| 20260507183003 | 14 | 269 | 3.2 | 14.5 | 0.00 | 0.28 | 0.28 | 70 | 998.8 |
| 20260507182003 | 13 | 295 | 4.8 | 16.1 | 0.00 | 0.28 | 0.28 | 72 | 998.8 |
| 20260507181003 | 13 | 303 | 3.2 | 12.9 | 0.00 | 0.28 | 0.28 | 72 | 998.8 |
| 20260507180004 | 14 | 300 | 4.8 | 11.3 | 0.00 | 0.28 | 0.28 | 75 | 998.8 |
| 20260507175003 | 13 | 275 | 4.8 | 14.5 | 0.00 | 0.28 | 0.28 | 76 | 998.8 |
| 20260507174003 | 13 | 247 | 1.6 | 9.7 | 0.00 | 0.28 | 0.28 | 80 | 999.2 |
| 20260507173004 | 12 | 266 | 3.2 | 11.3 | 0.00 | 0.28 | 0.28 | 84 | 998.8 |
| 20260507172003 | 12 | 227 | 3.2 | 12.9 | 0.03 | 0.28 | 0.28 | 92 | 999.2 |
| 20260507171003 | 11 | 253 | 1.6 | 9.7 | 0.03 | 0.28 | 0.28 | 91 | 999.5 |
| 20260507170004 | 11 | 282 | 3.2 | 9.7 | 0.03 | 0.28 | 0.28 | 93 | 999.5 |
| 20260507165004 | 11 | 287 | 1.6 | 6.4 | 0.03 | 0.28 | 0.28 | 95 | 999.8 |
| 20260507164004 | 10 | 262 | 1.6 | 6.4 | 0.03 | 0.28 | 0.28 | 96 | 999.5 |
| 20260507163003 | 10 | 219 | 1.6 | 4.8 | 0.03 | 0.28 | 0.28 | 96 | 999.5 |
| 20260507162003 | 10 | 273 | 1.6 | 6.4 | 0.00 | 0.25 | 0.25 | 96 | 999.8 |
| 20260507161004 | 10 | 275 | 1.6 | 9.7 | 0.00 | 0.25 | 0.25 | 95 | 999.8 |
| 20260507160004 | 10 | 264 | 1.6 | 9.7 | 0.00 | 0.25 | 0.25 | 96 | 999.8 |
| 20260507155003 | 10 | 256 | 1.6 | 6.4 | 0.00 | 0.25 | 0.25 | 96 | 1000.2 |
| 20260507154004 | 10 | 261 | 1.6 | 6.4 | 0.00 | 0.25 | 0.25 | 96 | 999.5 |
| 20260507153003 | 10 | 277 | 1.6 | 9.7 | 0.00 | 0.25 | 0.25 | 95 | 1000.5 |
| 20260507152003 | 10 | 270 | 1.6 | 9.7 | 0.00 | 0.25 | 0.25 | 95 | 1000.9 |
| 20260507151003 | 10 | 264 | 1.6 | 4.8 | 0.00 | 0.25 | 0.25 | 95 | 1000.9 |
| 20260507150004 | 10 | 282 | 1.6 | 4.8 | 0.00 | 0.25 | 0.25 | 95 | 1000.2 |
| 20260507145003 | 10 | 255 | 1.6 | 4.8 | 0.00 | 0.25 | 0.25 | 96 | 1000.5 |
| 20260507144003 | 10 | 264 | 1.6 | 6.4 | 0.00 | 0.25 | 0.25 | 96 | 1000.9 |
| 20260507143004 | 10 | 211 | 0.0 | 4.8 | 0.03 | 0.25 | 0.25 | 96 | 1000.9 |
| 20260507142004 | 10 | 177 | 0.0 | 4.8 | 0.05 | 0.25 | 0.25 | 96 | 1000.2 |
| 20260507141004 | 10 | 181 | 1.6 | 4.8 | 0.08 | 0.25 | 0.25 | 96 | 1000.9 |
| 20260507140003 | 10 | 205 | 0.0 | 1.6 | 0.08 | 0.25 | 0.25 | 96 | 1000.9 |
| 20260507135003 | 10 | 203 | 1.6 | 4.8 | 0.08 | 0.25 | 0.25 | 95 | 1000.2 |
| 20260507134003 | 11 | 206 | 0.0 | 4.8 | 0.08 | 0.25 | 0.25 | 95 | 1000.2 |
| 20260507133003 | 11 | 206 | 1.6 | 6.4 | 0.05 | 0.23 | 0.23 | 94 | 1000.9 |
| 20260507132003 | 11 | 249 | 1.6 | 12.9 | 0.03 | 0.20 | 0.20 | 92 | 1001.2 |
| 20260507131003 | 11 | 192 | 1.6 | 3.2 | 0.00 | 0.18 | 0.18 | 90 | 1000.9 |
| 20260507130004 | 11 | 202 | 1.6 | 6.4 | 0.00 | 0.18 | 0.18 | 89 | 1000.9 |
| 20260507125004 | 11 | 204 | 3.2 | 11.3 | 0.00 | 0.18 | 0.18 | 88 | 1000.9 |
| 20260507124003 | 11 | 184 | 3.2 | 9.7 | 0.00 | 0.18 | 0.18 | 88 | 1001.2 |
| 20260507123004 | 11 | 202 | 3.2 | 11.3 | 0.00 | 0.18 | 0.18 | 89 | 1000.9 |
| 20260507122004 | 11 | 192 | 3.2 | 9.7 | 0.00 | 0.18 | 0.18 | 89 | 1000.5 |
| 20260507121004 | 11 | 203 | 3.2 | 11.3 | 0.00 | 0.18 | 0.18 | 90 | 1000.5 |
| 20260507120004 | 11 | 194 | 3.2 | 9.7 | 0.00 | 0.18 | 0.18 | 91 | 1000.5 |
| 20260507115003 | 11 | 190 | 4.8 | 12.9 | 0.00 | 0.18 | 0.18 | 92 | 1000.2 |
| 20260507114004 | 11 | 208 | 4.8 | 22.5 | 0.00 | 0.18 | 0.18 | 91 | 1000.9 |
| 20260507113004 | 11 | 199 | 1.6 | 11.3 | 0.03 | 0.18 | 0.18 | 94 | 1000.9 |
| 20260507112004 | 11 | 183 | 1.6 | 6.4 | 0.05 | 0.18 | 0.18 | 95 | 1000.9 |
| 20260507111004 | 11 | 175 | 1.6 | 6.4 | 0.05 | 0.18 | 0.18 | 94 | 999.8 |
| 20260507110004 | 11 | 172 | 1.6 | 6.4 | 0.05 | 0.18 | 0.18 | 96 | 999.8 |
| 20260507105003 | 11 | 192 | 1.6 | 6.4 | 0.05 | 0.18 | 0.18 | 95 | 999.8 |
| 20260507104004 | 11 | 170 | 1.6 | 3.2 | 0.05 | 0.18 | 0.18 | 95 | 999.8 |
| 20260507103003 | 11 | 185 | 3.2 | 12.9 | 0.03 | 0.15 | 0.15 | 94 | 1000.2 |
| 20260507102003 | 11 | 167 | 4.8 | 9.7 | 0.00 | 0.13 | 0.13 | 91 | 1000.2 |
| 20260507101003 | 12 | 191 | 3.2 | 14.5 | 0.00 | 0.13 | 0.13 | 91 | 1000.5 |